Regional Weather Roundup
Issued by NWS Little Rock, AR

Home | Current Version | Previous Version | Graphics & Text | Print | Product List | Glossary On
Versions: 1 2 3 4 5 6 7 8 9 10 11 12 13 14 15 16 17 18 19 20 21 22 23 24 25 26 27 28 29 30 31
000
ASUS44 KLZK 220105
RWRLZK

WEATHER ROUNDUP FOR ARKANSAS
NATIONAL WEATHER SERVICE LITTLE ROCK AR
800 PM CDT FRI JUL 21 2017

NOTE: "FAIR" INDICATES FEW OR NO CLOUDS BELOW 12,000 FEET WITH NO
SIGNIFICANT WEATHER AND/OR OBSTRUCTIONS TO VISIBILITY.

ARZ001-003-010-029-220200-
NORTHWEST ARKANSAS

CITY           SKY/WX    TMP DP  RH WIND       PRES   REMARKS
FAYETTEVILLE   CLEAR     86  74  67 S3        29.96F HX  94
FORT SMITH     CLEAR     92  74  55 S3        29.90F HX 101
HARRISON       CLEAR     86  73  65 S6        29.98S HX  93
BENTONVILLE    CLEAR     88  68  51 S5        29.97S HX  91
ROGERS         CLEAR     89  71  55 S7        29.97S HX  95
SILOAM SPGS    CLEAR     88  70  55 S7        29.95S HX  92
HIGHFILL       CLEAR     88  71  57 S7        29.96S HX  94
SPRINGDALE     CLEAR     90  70  51 S10       29.98S HX  95
$$

ARZ004-005-016-220200-
NORTH CENTRAL ARKANSAS

CITY           SKY/WX    TMP DP  RH WIND       PRES   REMARKS
BATESVILLE     CLEAR     90  73  58 S5        29.94R HX  98
FLIPPIN        CLEAR     91  70  49 S3        29.93R HX  97
MTN HOME       CLEAR     86  75  69 CALM      29.94S HX  95
$$

ARZ040-041-220200-
WEST CENTRAL ARKANSAS

CITY           SKY/WX    TMP DP  RH WIND       PRES   REMARKS
MENA           NOT AVBL
MOUNT IDA      CLEAR     89  68  49 CALM      29.94S HX  93
$$

ARZ009-017-025-026-028-220200-
NORTHEAST ARKANSAS

CITY           SKY/WX    TMP DP  RH WIND       PRES   REMARKS
JONESBORO      CLEAR     91  75  59 S8        29.93S HX 101
WALNUT RIDGE   CLEAR     90  75  62 CALM      29.92S HX 100
BLYTHEVILLE    CLEAR     90  78  68 S6        29.94S HX 104
$$

ARZ022-023-033-042-044-220200-
CENTRAL ARKANSAS

CITY           SKY/WX    TMP DP  RH WIND       PRES   REMARKS
LITTLE ROCK    PTCLDY    89  77  67 S5        29.94R HX 101
N LITTLE ROCK    N/A     90  73  57 S5        29.93R HX  98
CONWAY           N/A     91  77  62 SW3       29.91S HX 105
SEARCY         CLEAR     88  78  72 SW3       29.95R HX 101
HOT SPRINGS    CLEAR     92  75  57 S6        29.95R HX 103
RUSSELLVILLE   CLEAR     87  77  72 CALM      29.92R HX  99
CLINTON        FAIR      88  79  74 CALM      29.94R HX 102
$$

ARZ036-220200-
EAST ARKANSAS

CITY           SKY/WX    TMP DP  RH WIND       PRES   REMARKS
WEST MEMPHIS   CLEAR     86  78  77 CALM      29.93F HX  98
$$

ARZ050-053-066-070-073-220200-
SOUTHWEST ARKANSAS

CITY           SKY/WX    TMP DP  RH WIND       PRES   REMARKS
ARKADELPHIA    FAIR      90  81  74 CALM      29.94S HX 109
CAMDEN         CLEAR     86  77  74 CALM      29.94S HX  97
TEXARKANA      PTCLDY    87  75  67 SE3       29.94S HX  96
EL DORADO      CLEAR     90  76  63 S5        29.96R HX 101
DE QUEEN       CLEAR     91  77  63 SE3       29.91S HX 104
$$

ARZ056-057-069-220200-
SOUTHEAST ARKANSAS

CITY           SKY/WX    TMP DP  RH WIND       PRES   REMARKS
PINE BLUFF     CLEAR     87  78  74 S3        29.95S HX 100
STUTTGART      CLEAR     91  68  46 S6        29.96S HX  95
MONTICELLO     CLEAR     90  77  65 CALM      29.95S HX 103

$$






USA.gov is the U.S. government's official web portal to all federal, state and local government web resources and services.